Content
SEND FEEDBACK

Daily
Averages
Monthly
Summary
Canada

QUEBEC CITY, QUEBEC


Home > North America > Canada > Quebec
Elevation: 239 feet     Latitude: 46 48N     Longitude: 071 23W

WEATHER
 
SELECT A DAY
Number of Records: 196,881;   Date Range: 6/30/96 - 11/20/14
 
SHARE

PRINT THIS DATA

[ ← Previous Day ]
WEATHER ALMANAC - DECEMBER 17, 2013
[ Next Day → ]
[ °C ]   °F
Weather ElementAverageHighLow
Temperature-1.4 °F10.4 °F (8:27 pm)-22 °F (7:00 am)
Dewpoint-7.2 °F6 °F (10:00 pm)-28 °F (7:00 am)
Humidity74.2 %79 % (6:00 pm)58 % (1:00 pm)
Barometer30.21 in30.32 in (9:00 am)30.11 in (8:00 pm)
Wind Speed7.6 mph15 mph (1:00 am)
Wind Gust18.4 mph (9:00 pm)
Weather ElementAverage
Visibility15.5 mi
Wind DirectionESE (128.2 °)

Weather ElementTotal
Precipitation---
Heating Degree Days70.8 (Base 65)
Averaged from 34 records on December 17, 2013
WEATHER CONDITIONS BREAKOUT
WIND DIRECTION BREAKOUT
WEATHER BY HOUR - DECEMBER 17, 2013
[ °C ]   °F
Local TimeTemperatureDewpointHumidityBarometerVisibilityWind DirectionWind SpeedGust SpeedPrecipitationEventsConditions
1:00 AM-6.0 °F-10.0 °F75 %30.22 inWSW (240°)6.9 mph
1:00 AM-7.6 °F-13.0 °F77 %30.22 in15.0 miWSW (240°)15.0 mphPartly Cloudy
2:00 AM-7.6 °F-13.0 °F77 %30.25 in15.0 miWSW (250°)12.7 mphPartly Cloudy
3:00 AM-9.4 °F-14.8 °F77 %30.27 in15.0 miSW (220°)13.8 mphPartly Cloudy
4:00 AM-10.0 °F-14.0 °F71 %30.25 inWest (270°)5.8 mph
4:00 AM-9.4 °F-14.8 °F77 %30.26 in15.0 miSW (230°)12.7 mphPartly Cloudy
5:00 AM-7.6 °F-13.0 °F77 %30.27 in15.0 miWSW (240°)15.0 mphPartly Cloudy
6:00 AM-11.2 °F-16.6 °F77 %30.28 in15.0 miWSW (240°)6.9 mphPartly Cloudy
7:00 AM-13.0 °F-18.4 °F77 %30.29 in15.0 miSW (230°)4.6 mphFogPartly Cloudy
7:00 AM-22.0 °F-28.0 °F62 %30.27 inWNW (300°)2.3 mph
8:00 AM-14.8 °F-22.0 °F70 %30.31 in15.0 miNW (320°)3.5 mphPartly Cloudy
9:00 AM-11.2 °F-16.6 °F77 %30.32 in10.0 miCalmPartly Cloudy
10:00 AM-5.0 °F-9.0 °F75 %30.31 inCalm
10:00 AM-7.6 °F-13.0 °F77 %30.31 in10.0 miCalmPartly Cloudy
10:33 AM-4.0 °F-9.4 °F78 %30.29 in15.0 miCalmIce Crystals
11:00 AM-4.0 °F-9.4 °F78 %30.28 in15.0 miCalmPartly Cloudy
12:00 PM-2.2 °F-9.4 °F71 %30.25 in15.0 miNNW (340°)3.5 mphPartly Cloudy
1:00 PM-0.4 °F-7.6 °F72 %30.22 in30.0 miESE (110°)3.5 mphMostly Cloudy
1:00 PM1.0 °F-7.0 °F58 %30.22 inENE (70°)2.3 mph
2:00 PM1.4 °F-7.6 °F66 %30.20 in30.0 miNE (50°)10.4 mphMostly Cloudy
3:00 PM1.4 °F-5.8 °F72 %30.20 in30.0 miENE (60°)9.2 mphMostly Cloudy
4:00 PM4.0 °F-1.0 °F68 %30.18 inEast (80°)8.1 mph
4:00 PM3.2 °F-4.0 °F72 %30.19 in30.0 miENE (60°)8.1 mphOvercast
5:00 PM3.2 °F-2.2 °F78 %30.16 in30.0 miNE (50°)12.7 mphOvercast
6:00 PM6.8 °F1.4 °F79 %30.15 in15.0 miENE (60°)11.5 mphOvercast
7:00 PM8.6 °F3.2 °F79 %30.13 in15.0 miNE (50°)13.8 mphOvercast
7:00 PM9.0 °F4.0 °F72 %30.12 inENE (70°)8.1 mph
8:00 PM8.6 °F1.4 °F73 %30.11 in15.0 miENE (70°)12.7 mphOvercast
8:27 PM10.4 °F3.2 °F73 %30.11 in15.0 miENE (60°)12.7 mphSnowLight Snow Showers
9:00 PM10.4 °F3.2 °F73 %30.11 in3.0 miENE (60°)10.4 mph18.4 mphSnowLight Snow Showers
9:14 PM8.6 °F3.2 °F79 %30.12 in1.5 miENE (60°)9.2 mphSnowLight Snow Showers
10:00 PM10.0 °F6.0 °F77 %30.11 inENE (70°)6.9 mph
10:00 PM8.6 °F3.2 °F79 %30.12 in1.5 miENE (60°)11.5 mph18.4 mphSnowLight Snow Showers
11:00 PM10.4 °F5.0 °F79 %30.11 in1.5 miENE (70°)5.8 mphSnowLight Snow Showers
Hourly data recorded from CYQB, located miles away from Quebec City, Quebec







STORIES FROM OUR PARTNERS